Overview Statistics Trail Chart Weather Telemetry Raw packets
 

This is the latest recevied weather packets stored in our database for station/object K8RRT. If no packets are shown the sender has not sent any weather packets the latest 10 day(s).

<< 81 82 83 84 85 86 87 >>
Time Temp. Humidity Pressure Rain* Wind** Luminosity Snow
1788019539 27.22° C 75% 1018 hPa 0 mm - 741 W/m² -
1788019239 27.22° C 73% 1018.4 hPa 0 mm - 789 W/m² -
1788018937 26.67° C 76% 1018.4 hPa 0 mm - 779 W/m² -
1788018633 26.67° C 76% 1018.7 hPa 0 mm - 773 W/m² -
1788018332 26.67° C 76% 1018.6 hPa 0 mm - 792 W/m² -
1788018027 26.67° C 75% 1018.5 hPa 0 mm - 833 W/m² -
1788017724 26.67° C 75% 1018.7 hPa 0 mm - 821 W/m² -
1788017420 26.11° C 78% 1018.7 hPa 0 mm - 811 W/m² -
1788017117 26.11° C 78% 1018.7 hPa 0 mm - 813 W/m² -
1788016816 26.11° C 77% 1018.6 hPa 0 mm - 829 W/m² -
1788016514 26.11° C 80% 1018.5 hPa 0 mm - 782 W/m² -
1788016209 25.56° C 78% 1018.6 hPa 0 mm - 627 W/m² -
1788015910 25.56° C 78% 1018.6 hPa 0 mm - 580 W/m² -
1788015602 25.56° C 78% 1018.7 hPa 0 mm - 711 W/m² -
1788015297 25° C 81% 1018.8 hPa 0 mm - 712 W/m² -
1788014996 25° C 82% 1018.5 hPa 0 mm - 664 W/m² -
1788014695 25° C 79% 1018.7 hPa 0 mm - 651 W/m² -
1788014391 24.44° C 83% 1018.8 hPa 0 mm - 650 W/m² -
1788014087 23.89° C 83% 1018.6 hPa 0 mm - 655 W/m² -
1788013785 23.89° C 84% 1018.4 hPa 0 mm - 545 W/m² -
1788013479 23.89° C 85% 1018.4 hPa 0 mm - 596 W/m² -
1788013174 23.89° C 84% 1018.5 hPa 0 mm - 593 W/m² -
1788012873 23.33° C 85% 1018.5 hPa 0 mm - 132 W/m² -
1788012568 23.33° C 86% 1018.4 hPa 0 mm - 478 W/m² -
1788012263 22.78° C 86% 1018.2 hPa 0 mm - 532 W/m² -

* Rain latest hour (hover to see other rain measurements)
** Current wind speed in m/s (hover to see current wind gust speed)